[[{"header":{"parameterUnit":"m.s-1","parameterCategory":1,"la1":30.2991,"la2":30.254,"lo1":-89.0895,"lo2":-89.0444,"dy":0.0017,"dx":0.0017,"nx":28,"ny":28,"refTime":"2023-03-13T21:00:00:Z","depth":0,"parameterNumber":2,"parameterNumberName":"U-component_of_WINDS"},"data":[0,0,0,0,0,0,0,0,0,0,0,0,0,0,0,0,0,0,0,0,0,0,0,0,0,0,0,0,0,0,0,0,0,0,0,0,0,0,0,0,0,0,0,0,0,0,0,0,0,0,0,0,0,0,0,0,0,0,-4.8731,-4.8732,0,-4.8799,-4.88,-4.8801,-4.8641,-4.8636,-4.8631,-4.8626,-4.8696,-4.8702,-4.8708,0,0,0,0,0,0,0,0,0,0,0,0,0,-4.8462,-4.8468,-4.8731,-4.8732,-4.8733,-4.8799,-4.88,-4.8801,-4.8642,-4.8635,-4.8629,-4.8623,-4.8693,-4.8701,-4.8709,0,0,0,0,0,0,0,0,0,0,0,0,0,-4.856,-4.847,-4.8731,-4.8661,-4.8656,-4.8799,-4.88,-4.8801,-4.8643,-4.8635,-4.8628,-4.862,-4.8691,-4.87,-4.871,-4.8924,0,0,-4.874,-4.8745,0,0,0,0,0,0,0,0,-4.8554,-4.857,-4.8671,-4.8666,-4.866,-4.8704,-4.873,-4.8842,-4.8645,-4.8648,-4.8626,-4.8617,-4.8704,-4.8713,-4.8742,-4.8927,-4.893,-4.8741,-4.8747,-4.8751,-4.8754,0,0,0,0,0,0,0,-4.8548,-4.8566,-4.8758,-4.8672,-4.8666,-4.8626,-4.8632,-4.8751,-4.8718,-4.8647,-4.8636,-4.8646,-4.87,-4.8733,-4.8743,-4.8931,-4.8741,-4.875,-4.8756,-4.876,-4.9292,-4.93,0,0,0,0,0,0,-4.855,-4.8561,-4.8756,-4.876,-4.8587,-4.8637,-4.8643,-4.8697,-4.8716,-4.8712,-4.8652,-4.8638,-4.872,-4.8731,-4.8744,-4.8994,-4.8751,-4.8761,-4.8766,-4.9284,-4.9294,-4.9302,0,0,0,0,0,0,-4.8545,-4.8569,-4.8753,-4.8658,-4.8678,-4.865,-4.8712,-4.8703,-4.8735,-4.872,-4.8713,-4.8692,-4.8714,-4.873,-4.888,-4.8994,-4.8765,-4.8774,-4.9274,-4.9287,-4.9298,-4.9496,0,0,0,0,0,0,-4.8538,-4.8568,-4.8649,-4.8661,-4.8684,-4.8889,-4.8719,-4.871,-4.8753,-4.8735,-4.8756,-4.8752,-4.871,-4.8866,-4.889,-4.9004,-4.8782,-4.9264,-4.928,-4.9294,-4.948,-4.9514,-4.9543,0,0,0,0,0,-4.8529,-4.8703,-4.8654,-4.8679,-4.8785,-4.8895,-4.8908,-4.8856,-4.8763,-4.8844,-4.8834,-4.8751,-4.8978,-4.8882,-4.8908,-4.9027,-4.9256,-4.9275,-4.9293,-4.9465,-4.9507,-4.9543,0,0,0,0,0,0,-4.8707,-4.8703,-4.8649,-4.8833,-4.8866,-4.8868,-4.8969,-4.8903,-4.8963,-4.8944,-4.8876,-4.8882,-4.9044,-4.905,-4.8944,-4.9233,-4.9101,-4.9126,-4.9223,-4.9263,-4.9294,-4.9289,-4.879,0,0,0,0,0,-4.8767,-4.8858,-4.8849,-4.9012,-4.9031,-4.8998,-4.9044,-4.9001,-4.9032,-4.9045,-4.9046,-4.9079,-4.9157,-4.921,-4.9282,-4.9479,-4.9481,-4.9574,-4.9606,-4.9632,-4.9654,-4.9756,-4.9797,-4.9363,-4.9363,-4.9363,0,0,-4.8893,-4.8903,-4.8964,-4.9048,-4.9068,-4.9162,-4.9011,-4.9117,-4.9186,-4.9061,-4.9201,-4.9204,-4.9236,-4.941,-4.9487,-4.942,-4.9774,-4.9655,-4.9677,-4.9684,-4.978,-4.9821,-4.9857,-4.9376,-4.9373,-4.9371,0,0,-4.9171,-4.9188,-4.9324,-4.9347,-4.9379,-4.9356,-4.9389,-4.9401,-4.9398,-4.9537,-4.9445,-4.9526,-4.9663,-4.9689,-4.9721,-5.0006,-4.9932,-5.0032,-5.0199,-5.03,-5.0334,-5.0364,-5.0464,-5.0501,-5.0053,-5.0054,-5.0054,0,-4.9323,-4.9462,-4.9402,-4.9515,-4.9554,-4.9445,-4.9581,-4.9607,-4.9661,-4.969,-4.9615,-4.9783,-4.9798,-4.9975,-5.0045,-5.0074,-5.0108,-5.0029,-5.0334,-5.0363,-5.039,-5.0485,-5.0523,-5.0066,-5.0064,-5.0063,-5.0062,0,-4.9647,-4.9745,-4.9851,-4.9905,-4.9956,-5.0081,-5.0039,-5.0098,-5.005,-5.0034,-5.0176,-5.019,-5.0261,-5.03,-5.0255,-5.0471,-5.0428,-5.0345,-5.0211,-5.0444,-5.0532,-5.0569,-5.0083,-5.0078,-5.0075,-5.0072,0,0,-5.004,-5.0058,-5.0098,-5.0121,-5.0148,-5.0221,-5.034,-5.0409,-5.046,-5.0501,-5.0598,-5.0716,-5.0638,-5.0674,-5.063,-5.0719,-5.0942,-5.0624,-5.0623,-5.0681,-5.118,-5.1241,-5.1285,-5.0893,-5.09,-5.0905,-5.1176,0,-5.0313,-5.0516,-5.0465,-5.0667,-5.0755,-5.0652,-5.0755,-5.0782,-5.077,-5.0843,-5.0829,-5.0913,-5.0805,-5.0825,-5.0909,-5.0898,-5.1041,-5.0878,-5.0982,-5.0986,-5.0976,-5.1331,-5.1397,-5.1652,-5.121,-5.1216,-5.122,0,-5.0659,-5.0712,-5.0923,-5.0933,-5.0968,-5.1062,-5.112,-5.1192,-5.122,-5.1204,-5.1244,-5.1182,-5.1298,-5.1163,-5.1321,-5.1211,-5.125,-5.1251,-5.126,-5.1267,-5.1117,-5.1346,-5.1732,-5.177,-5.1274,-5.127,-5.1266,0,-5.0922,-5.1047,-5.1188,-5.1211,-5.1227,-5.1295,-5.1305,-5.1326,-5.137,-5.1421,-5.1448,-5.1513,-5.1548,-5.1599,-5.1555,-5.1461,-5.172,-5.1582,-5.1709,-5.171,-5.1768,-5.1764,-5.2164,-5.1796,-5.1795,-5.1794,-5.1794,0,-5.1232,-5.1364,-5.1306,-5.1393,-5.1538,-5.1478,-5.1623,-5.1621,-5.164,-5.1724,-5.1639,-5.1719,-5.1657,-5.1732,-5.1699,-5.1834,-5.1851,-5.1841,-5.183,-5.1848,-5.1849,-5.1872,-5.1853,-5.1804,-5.1802,-5.18,-5.1799,0,-5.155,-5.1517,-5.1664,-5.1667,-5.1671,-5.1777,-5.1779,-5.1859,-5.184,-5.1948,-5.197,-5.194,-5.2024,-5.1986,-5.2074,-5.2051,-5.2224,-5.2191,-5.2215,-5.2206,-5.2335,-5.2323,-5.2762,-5.2816,-5.2415,-5.2418,-5.2422,0,-5.1749,-5.1849,-5.1862,-5.1912,-5.1928,-5.201,-5.2054,-5.1998,-5.2048,-5.2087,-5.2162,-5.2238,-5.2296,-5.2434,-5.242,-5.2487,-5.2453,-5.2603,-5.2463,-5.2477,-5.2453,-5.2448,-5.2456,-5.2631,-5.2635,-5.2639,-5.2642,0,-5.2106,-5.2084,-5.2151,-5.2214,-5.2269,-5.2315,-5.2353,-5.2399,-5.2344,-5.2404,-5.2488,-5.2533,-5.2622,-5.2698,-5.2756,-5.2765,-5.2695,-5.2687,-5.2719,-5.2738,-5.2747,-5.2742,-5.229,-5.2677,-5.2673,-5.2671,-5.2669,-5.2667,-5.237,-5.2452,-5.2474,-5.2552,-5.2575,-5.2612,-5.2687,-5.2677,-5.2746,-5.2814,-5.2777,-5.2875,-5.2899,-5.2969,-5.2987,-5.3062,-5.3003,-5.3051,-5.3063,-5.3075,-5.3092,-5.2736,-5.3073,-5.3072,-5.3071,-5.307,-5.3069,0,-5.272,-5.2729,-5.2801,-5.2857,-5.2918,-5.2846,-5.2884,-5.294,-5.3027,-5.3055,-5.3113,-5.3209,-5.3282,-5.3274,-5.3341,-5.3402,-5.3372,-5.3422,-5.3416,-5.3419,-5.3142,-5.3106,-5.3445,-5.3445,-5.3445,-5.3445,-5.3445,-5.3445,-5.291,-5.3046,-5.3026,-5.3172,-5.3179,-5.3274,-5.3302,-5.3336,-5.3357,-5.3468,-5.3529,-5.3522,-5.3535,-5.3602,-5.3665,-5.3661,-5.3688,-5.375,-5.3734,-5.3476,-5.3438,-5.3403,-5.3369,-5.3757,-5.3758,-5.4004,-5.4006,-5.4008]},{"header":{"parameterUnit":"m.s-1","parameterCategory":1,"la1":30.2991,"la2":30.254,"lo1":-89.0895,"lo2":-89.0444,"dy":0.0017,"dx":0.0017,"nx":28,"ny":28,"refTime":"2023-03-13T21:00:00:Z","depth":0,"parameterNumber":3,"parameterNumberName":"V-component_of_WINDS"},"data":[0,0,0,0,0,0,0,0,0,0,0,0,0,0,0,0,0,0,0,0,0,0,0,0,0,0,0,0,0,0,0,0,0,0,0,0,0,0,0,0,0,0,0,0,0,0,0,0,0,0,0,0,0,0,0,0,0,0,-4.3555,-4.3556,0,-4.3617,-4.3618,-4.3619,-4.3557,-4.3555,-4.3552,-4.355,-4.3611,-4.3614,-4.3618,0,0,0,0,0,0,0,0,0,0,0,0,0,-4.3378,-4.3382,-4.3555,-4.3556,-4.3557,-4.3617,-4.3618,-4.3619,-4.3558,-4.3555,-4.3552,-4.3549,-4.3609,-4.3614,-4.3619,0,0,0,0,0,0,0,0,0,0,0,0,0,-4.3449,-4.3383,-4.3555,-4.3533,-4.3532,-4.3617,-4.3618,-4.3619,-4.3558,-4.3555,-4.3551,-4.3548,-4.3608,-4.3614,-4.3619,-4.3728,0,0,-4.3637,-4.364,0,0,0,0,0,0,0,0,-4.3445,-4.3456,-4.3536,-4.3535,-4.3534,-4.3576,-4.3578,-4.3655,-4.3559,-4.3548,-4.355,-4.3546,-4.3602,-4.3608,-4.3627,-4.373,-4.3733,-4.3638,-4.3641,-4.3644,-4.3645,0,0,0,0,0,0,0,-4.344,-4.3453,-4.358,-4.3537,-4.3536,-4.3519,-4.3525,-4.3592,-4.3594,-4.3549,-4.3545,-4.3553,-4.3601,-4.3622,-4.3628,-4.3734,-4.3637,-4.3642,-4.3646,-4.3648,-4.3926,-4.3929,0,0,0,0,0,0,-4.3438,-4.3449,-4.3578,-4.3581,-4.348,-4.3525,-4.3532,-4.3566,-4.3594,-4.3594,-4.3556,-4.355,-4.3614,-4.3622,-4.363,-4.3757,-4.3643,-4.3649,-4.3652,-4.3922,-4.3926,-4.3931,0,0,0,0,0,0,-4.3435,-4.3451,-4.3575,-4.3514,-4.3529,-4.3532,-4.3571,-4.3569,-4.359,-4.3599,-4.3599,-4.3578,-4.3611,-4.3622,-4.3703,-4.3758,-4.3652,-4.3657,-4.3917,-4.3923,-4.3928,-4.4012,0,0,0,0,0,0,-4.343,-4.345,-4.3492,-4.3516,-4.3532,-4.3649,-4.3574,-4.3573,-4.3601,-4.3594,-4.3619,-4.362,-4.3609,-4.3695,-4.3709,-4.3764,-4.3661,-4.3912,-4.392,-4.3927,-4.4005,-4.402,-4.4034,0,0,0,0,0,-4.3424,-4.3513,-4.3495,-4.3511,-4.3586,-4.3652,-4.3662,-4.3648,-4.3606,-4.3647,-4.3652,-4.3619,-4.375,-4.3704,-4.3719,-4.3777,-4.3909,-4.3918,-4.3926,-4.3998,-4.4017,-4.4033,0,0,0,0,0,0,-4.3496,-4.3516,-4.3496,-4.3595,-4.3623,-4.3642,-4.3694,-4.3669,-4.3708,-4.37,-4.368,-4.3686,-4.3772,-4.3783,-4.3731,-4.3881,-4.3822,-4.3834,-4.3872,-4.389,-4.3904,-4.3899,-4.3666,0,0,0,0,0,-4.3523,-4.3577,-4.3591,-4.3678,-4.3692,-4.3691,-4.372,-4.3707,-4.3734,-4.3745,-4.3756,-4.3782,-4.3829,-4.386,-4.3904,-4.4006,-4.4009,-4.4053,-4.4067,-4.4079,-4.409,-4.4142,-4.4161,-4.3959,-4.3959,-4.3959,0,0,-4.358,-4.3598,-4.3633,-4.3693,-4.3712,-4.3766,-4.3701,-4.3762,-4.3801,-4.3754,-4.3831,-4.384,-4.3867,-4.3959,-4.4,-4.3971,-4.4146,-4.409,-4.41,-4.4104,-4.4153,-4.4172,-4.4189,-4.3965,-4.3964,-4.3963,0,0,-4.3712,-4.3732,-4.3805,-4.3826,-4.3856,-4.3854,-4.3872,-4.3895,-4.3899,-4.3976,-4.3941,-4.3986,-4.4068,-4.4089,-4.411,-4.4247,-4.4217,-4.4262,-4.4337,-4.4388,-4.4404,-4.4418,-4.4465,-4.4482,-4.4272,-4.4272,-4.4272,0,-4.3779,-4.3861,-4.3845,-4.3908,-4.3934,-4.3894,-4.3966,-4.3987,-4.403,-4.4048,-4.4014,-4.4114,-4.413,-4.4225,-4.4258,-4.4278,-4.4295,-4.4258,-4.4403,-4.4417,-4.443,-4.4474,-4.4492,-4.4277,-4.4277,-4.4276,-4.4276,0,-4.394,-4.3997,-4.4052,-4.4095,-4.4127,-4.4194,-4.4187,-4.4222,-4.4206,-4.4207,-4.4284,-4.4302,-4.4347,-4.4369,-4.4354,-4.4461,-4.4441,-4.4406,-4.4346,-4.4454,-4.4495,-4.4512,-4.4285,-4.4283,-4.4281,-4.428,0,0,-4.4119,-4.4151,-4.4172,-4.4189,-4.4219,-4.4262,-4.4326,-4.4371,-4.44,-4.443,-4.4482,-4.4551,-4.4518,-4.4542,-4.4529,-4.4574,-4.4679,-4.4533,-4.4533,-4.4557,-4.4795,-4.482,-4.484,-4.4659,-4.4663,-4.4665,-4.4792,0,-4.425,-4.4363,-4.435,-4.4457,-4.4508,-4.4469,-4.4525,-4.4548,-4.4551,-4.4593,-4.4595,-4.4643,-4.4597,-4.4611,-4.4654,-4.4657,-4.4726,-4.4648,-4.4705,-4.4708,-4.4699,-4.4862,-4.489,-4.5009,-4.4808,-4.4811,-4.4813,0,-4.4418,-4.4454,-4.4567,-4.4586,-4.4607,-4.4658,-4.4696,-4.4738,-4.4763,-4.4761,-4.4787,-4.4765,-4.4827,-4.4767,-4.4851,-4.4798,-4.4821,-4.4826,-4.483,-4.4834,-4.4766,-4.4869,-4.5046,-4.5064,-4.4838,-4.4836,-4.4834,0,-4.4534,-4.4612,-4.4688,-4.4705,-4.473,-4.4766,-4.4778,-4.48,-4.4827,-4.486,-4.4877,-4.4917,-4.4939,-4.497,-4.4959,-4.4916,-4.5044,-4.4983,-4.5043,-4.5043,-4.5071,-4.5069,-4.5253,-4.5088,-4.5088,-4.5088,-4.5087,0,-4.4681,-4.4751,-4.4741,-4.4788,-4.4863,-4.4847,-4.4922,-4.4929,-4.4948,-4.4994,-4.4964,-4.5007,-4.499,-4.5032,-4.5024,-4.5094,-4.5104,-4.5103,-4.5099,-4.5105,-4.5105,-4.5119,-4.5109,-4.5092,-4.5091,-4.509,-4.509,0,-4.4824,-4.4821,-4.4901,-4.4918,-4.4924,-4.4979,-4.4993,-4.5036,-4.5035,-4.5094,-4.5107,-4.5105,-4.5153,-4.5145,-4.5198,-4.5192,-4.5279,-4.5266,-4.5271,-4.5267,-4.5326,-4.532,-4.5524,-4.5549,-4.537,-4.5372,-4.5373,0,-4.4917,-4.497,-4.4993,-4.5022,-4.5036,-4.5084,-4.5111,-4.5096,-4.5125,-4.5156,-4.5195,-4.524,-4.5275,-4.5353,-4.5356,-4.5395,-4.5382,-4.5451,-4.5388,-4.5391,-4.5381,-4.5377,-4.5381,-4.5463,-4.5465,-4.5467,-4.5468,0,-4.5082,-4.5077,-4.5119,-4.5159,-4.5192,-4.5223,-4.525,-4.5275,-4.5263,-4.5297,-4.5346,-4.5373,-4.5426,-4.547,-4.5507,-4.5517,-4.549,-4.5488,-4.5503,-4.5509,-4.5509,-4.5507,-4.5303,-4.5483,-4.5482,-4.548,-4.548,-4.5479,-4.5202,-4.5246,-4.5268,-4.5314,-4.5333,-4.5359,-4.54,-4.5404,-4.5445,-4.5488,-4.5476,-4.5531,-4.5551,-4.5598,-4.5612,-4.5653,-4.5628,-4.5651,-4.5656,-4.5662,-4.5668,-4.5503,-4.566,-4.566,-4.5659,-4.5659,-4.5659,0,-4.5364,-4.5376,-4.5418,-4.5458,-4.5493,-4.5465,-4.5494,-4.5525,-4.5573,-4.5596,-4.5631,-4.5685,-4.5727,-4.5733,-4.5773,-4.5804,-4.5793,-4.5815,-4.5812,-4.5814,-4.569,-4.5671,-4.5824,-4.5824,-4.5824,-4.5824,-4.5824,-4.5824,-4.5452,-4.5524,-4.5522,-4.5602,-4.5613,-4.5667,-4.5685,-4.5708,-4.5725,-4.5788,-4.5823,-4.5827,-4.5841,-4.5882,-4.5918,-4.5919,-4.5934,-4.5961,-4.5956,-4.584,-4.5823,-4.5807,-4.579,-4.5965,-4.5965,-4.6077,-4.6078,-4.6079]}]]